Regional Weather Roundup
Issued by NWS

Home | Current Version | Previous Version | Graphics & Text | Print | Product List | Glossary On
Versions: 1 2 3 4 5 6 7 8 9 10 11 12 13 14 15 16 17 18 19 20 21 22 23 24 25 26 27 28 29 30 31 32 33 34 35 36 37 38 39 40 41 42 43 44 45 46 47 48 49 50
000
ASUS43 KBIS 251110
RWRND
NORTH DAKOTA REGIONAL WEATHER ROUNDUP
NATIONAL WEATHER SERVICE EASTERN NORTH DAKOTA/GRAND FORKS ND
600 AM CDT FRI MAY 25 2018

  NOTE: "FAIR" INDICATES FEW OR NO CLOUDS BELOW 12,000 FEET WITH NO
  SIGNIFICANT WEATHER AND/OR OBSTRUCTIONS TO VISIBILITY.

NDZ001>003-009>011-017-251200-
...NORTHWEST NORTH DAKOTA...

CITY           SKY/WX    TMP DP  RH WIND       PRES   REMARKS
WILLISTON      FAIR      58  55  90 SW8       29.74S
MINOT          FAIR      63  53  70 SW13      29.69F
MINOT AFB      FAIR      60  52  75 SW8       29.67F
$$

NDZ018>021-031>035-040>046-251200-
...SOUTHWEST NORTH DAKOTA...

CITY           SKY/WX    TMP DP  RH WIND       PRES   REMARKS
BISMARCK       FAIR      59  55  87 W6        29.78S
DICKINSON      FAIR      57  51  80 W8        29.80F
GARRISON         N/A     56  52  86 SW3       29.74S
HETTINGER      FAIR      50  47  89 CALM      29.87R
$$

NDZ004>008-012>016-024-026-027-054-251200-
...NORTHEAST NORTH DAKOTA...

CITY           SKY/WX    TMP DP  RH WIND       PRES   REMARKS
GRAND FORKS    FAIR      62  55  77 SW7       29.66F
GRAND FORKS AF FAIR      60  54  83 W6        29.67F
DEVILS LAKE    FAIR      60  56  86 SW9       29.71S
$$

NDZ022-023-025-028>030-036>039-047>053-251200-
...SOUTHEAST NORTH DAKOTA...

CITY           SKY/WX    TMP DP  RH WIND       PRES   REMARKS
JAMESTOWN      FAIR      61  55  81 W6        29.74S
FARGO          FAIR      61  56  83 SW3       29.71S
WAHPETON       FAIR      63  54  72 SW5       29.75R
$$




USA.gov is the U.S. government's official web portal to all federal, state and local government web resources and services.